Weather in Pechersk

Russia / Smolensk Oblast     54°09′15″N   32°15′38″E
temp.,
°C
wind,
m/s
gust,
m/s
humid.,
%
clouds,
%
prec.,
mm/h
press.,
hPa
HPBL,
m
14 april, wed
wed1400:00+10s229466 0.8 101836
03:00+10s2493100 0.9 1017122
06:00+10s2393100 0.3 101782
09:00+10sse3688100 0.3 1018315
12:00+13ssw356985 0.0 10171053
15:00+15s3456100 0.3 10161275
18:00+15s2261100 0.1 1016301
21:00+12ese1178100 0.5 101716
15 april, thu
thu1500:00+10ne2384100 0.1 101647
03:00+10ne3791100 0.3 1015180
06:00+10ne51090100 0.2 1015241
09:00+11ne61085100 0.2 1015436
12:00+13e6869100 0.1 1015866
15:00+11ene61177100 0.2 10151175
18:00+13ene5970100 0.1 1014860
21:00+12e61270100 0.7 1015540
16 april, fri
fri1600:00+9ne6138876 0.1 1015470
03:00+9ene7149036 0.1 1015504
06:00+9ene6129199 0.0 1015522
09:00+10ene5886100 0.3 1016616
12:00+13e6874100 0.1 1017963
15:00+11e51189100 4.7 1017645
18:00+11ene5882100 3.7 1018663
21:00+10e5892100 7.8 1019353
17 april, sat
sat1700:00+8ene41093100 0.0 1020306
03:00+9ene6129387 0.4 1020440
06:00+9e5991100 0.3 1021455
09:00+9ene4790100 0.4 1023449
12:00+10ene5785100 0.0 1023696
15:00+11ene5977100 0.1 10231054
18:00+13ene61068100 0.0 1023570
21:00+11ene6127236 0.0 1024531
18 april, sun
sun1800:00+8ene5137689 0.0 1024396
03:00+6ene5127433 0.0 1025307
06:00+4ene511785 0.0 1026303
09:00+8e596979 0.0 1026475
12:00+11e6761100 0.0 1026927
15:00+11e576538 0.0 1027937
18:00+11e577086 0.0 1027872
21:00+9e387590 0.0 1028265